Location: Zagreb
(45.8000°N, 16.0000°E)
Time: 22:16:38
(UTC+01:00)

Tiros 1 despin weight - Pass Details

Date: 04 February 2020
Orbit: 594 x 642 km, 48.2° (Epoch: 24 February)

Event Time Altitude Azimuth Distance (km) Brightness Sun altitude
Rises 06:39:15 0° 208° (SSW) 2,817 ? -6.7°
Reaches altitude 10° 06:41:51 10° 194° (SSW) 1,922 ? -6.3°
Maximum altitude 06:45:22 23° 141° (SE) 1,266 ? -5.7°
Drops below altitude 10° 06:48:55 10° 88° (E) 1,946 ? -5.1°
Sets 06:51:34 0° 74° (ENE) 2,860 ? -4.6°
